Location: Montreal
(45.5087°N, 73.5540°W)
Time: 08:24:11
(UTC-05:00)

Tiangong 2 - Visible Passes

Search period start: 17 February 2019 00:00
Search period end: 27 February 2019 00:00
Orbit: 381 x 390 km, 42.8° (Epoch: 16 February)

Date Brightness Start Highest point End Pass type
(mag) Time Alt. Az. Time Alt. Az. Time Alt. Az.
17 Feb 2.7 19:10:38 10° W 19:13:19 25° SSW 19:13:43 25° S visible
18 Feb 2.4 18:11:17 10° W 18:14:14 34° SSW 18:17:08 10° SE visible
18 Feb 4.2 19:49:21 10° SW 19:49:45 11° SW 19:49:45 11° SW visible
19 Feb 3.6 18:49:13 10° WSW 18:51:25 17° SSW 18:53:36 10° SSE visible
21 Feb 4.1 18:28:23 10° SW 18:29:25 11° SSW 18:30:25 10° SSW visible
